TimePDT,TemperatureF,Dew PointF,Humidity,Sea Level PressureIn,VisibilityMPH,Wind Direction,Wind SpeedMPH,Gust SpeedMPH,PrecipitationIn,Events,Conditions,WindDirDegrees,DateUTC
12:53 AM,50.0,41.0,71,30.04,10.0,WNW,9.2,-,N/A,,Clear,290,2013-04-01 07:53:00
1:53 AM,48.9,42.1,77,30.05,10.0,WSW,19.6,24.2,N/A,,Clear,250,2013-04-01 08:53:00
2:53 AM,48.9,39.9,71,30.04,10.0,SSW,11.5,20.7,N/A,,Clear,210,2013-04-01 09:53:00
3:53 AM,48.0,39.0,71,30.05,10.0,SSW,11.5,-,N/A,,Clear,210,2013-04-01 10:53:00
4:53 AM,46.9,39.9,77,30.05,10.0,SSW,9.2,-,N/A,,Clear,210,2013-04-01 11:53:00
5:53 AM,46.9,39.9,77,30.06,10.0,WSW,9.2,-,N/A,,Clear,240,2013-04-01 12:53:00
6:53 AM,48.0,39.9,74,30.07,10.0,WSW,16.1,-,N/A,,Clear,250,2013-04-01 13:53:00
7:53 AM,50.0,39.9,68,30.10,10.0,WSW,10.4,-,N/A,,Clear,240,2013-04-01 14:53:00
8:53 AM,53.6,39.2,58,30.12,10.0,WSW,13.8,-,N/A,,Clear,250,2013-04-01 15:53:00
9:53 AM,55.9,37.9,51,30.10,10.0,West,10.4,-,N/A,,Clear,270,2013-04-01 16:53:00
10:53 AM,57.9,39.0,49,30.11,10.0,WNW,15.0,21.9,N/A,,Clear,290,2013-04-01 17:53:00
11:53 AM,60.1,39.0,46,30.09,10.0,WSW,15.0,26.5,N/A,,Mostly Cloudy,250,2013-04-01 18:53:00
12:53 PM,63.0,37.9,40,30.07,10.0,West,15.0,26.5,N/A,,Clear,260,2013-04-01 19:53:00
1:53 PM,64.9,36.0,34,30.05,10.0,WNW,12.7,21.9,N/A,,Clear,290,2013-04-01 20:53:00
2:53 PM,66.9,39.0,36,30.03,10.0,West,23.0,27.6,N/A,,Partly Cloudy,260,2013-04-01 21:53:00
3:53 PM,64.0,41.0,43,30.01,10.0,WSW,24.2,32.2,N/A,,Clear,240,2013-04-01 22:53:00
4:53 PM,63.0,42.1,46,30.00,10.0,WSW,20.7,-,N/A,,Clear,250,2013-04-01 23:53:00
5:53 PM,62.1,43.0,50,30.02,10.0,WSW,21.9,28.8,N/A,,Clear,250,2013-04-02 00:53:00
6:53 PM,57.9,43.0,58,30.03,10.0,WSW,16.1,-,N/A,,Clear,240,2013-04-02 01:53:00
7:53 PM,55.9,43.0,62,30.04,10.0,SW,10.4,18.4,N/A,,Clear,220,2013-04-02 02:53:00
8:53 PM,54.0,43.0,66,30.04,10.0,West,16.1,25.3,N/A,,Clear,260,2013-04-02 03:53:00
9:53 PM,54.0,42.1,64,30.04,10.0,SSW,9.2,-,N/A,,Clear,210,2013-04-02 04:53:00
10:53 PM,54.0,41.0,62,30.04,10.0,SSW,9.2,-,N/A,,Clear,200,2013-04-02 05:53:00
11:53 PM,53.1,39.9,61,30.03,10.0,SW,9.2,-,N/A,,Clear,230,2013-04-02 06:53:00